Terug naar catalogus

COSMOS 397 DEB

ActiefLEO
NORAD 5277·DEBRIS·🇷🇺 Russia

Gelanceerd Feb 25, 1971 vanaf Baikonur Cosmodrome

Loading…

Volgende Passages (komende 24 uur)

TLE

VersSource: Space-Track

Epoch: Sep 14, 2026, 11:35 UTC

1 05277U 71015BE  26257.48305931  .00000104  00000-0  77479-4 0  9993
2 05277  65.7331  64.2941 0918413 262.8155  86.7717 13.01203845273554

Volg COSMOS 397 DEB in realtime met AllMySat

Download on the App Store